CW2057 Weather Reports


Display with metric or nautical units.
time (UTC)temp
F
wind
direction
speed
MPH
gust
MPH
rain 1hr
in
rain 24hr
in
rain mn
in
humidity
%
barometer
mb
20260509213643 70 93 1.0 4.0 0.00 0.00 0.00 64 1009.4
20260509213149 70 143 0.0 4.0 0.00 0.00 0.00 63 1009.4
20260509212618 71 201 3.0 4.0 0.00 0.00 0.00 59 1009.4
20260509212127 71 311 1.0 4.0 0.00 0.00 0.00 57 1009.4
20260509211635 71 320 1.0 4.0 0.00 0.00 0.00 57 1009.4
20260509211122 71 359 1.0 4.0 0.00 0.00 0.00 57 1009.4
20260509210631 71 297 1.0 8.0 0.00 0.00 0.00 58 1009.4
20260509210139 71 287 3.0 10.0 0.00 0.00 0.00 57 1009.3
20260509205625 71 332 3.0 10.0 0.00 0.00 0.00 57 1009.3
20260509205114 71 307 1.0 4.0 0.00 0.00 0.00 59 1009.2
20260509204622 71 326 1.0 5.0 0.00 0.00 0.00 57 1009.2
20260509204131 71 298 2.0 5.0 0.00 0.00 0.00 57 1009.2
20260509203639 71 17 2.0 5.0 0.00 0.00 0.00 58 1009.2
20260509203127 71 277 2.0 10.0 0.00 0.00 0.00 57 1009.2
20260509202652 71 290 2.0 11.0 0.00 0.00 0.00 58 1009.3
20260509202119 71 200 6.0 11.0 0.00 0.00 0.00 58 1009.2
20260509201629 71 136 1.0 4.0 0.00 0.00 0.00 58 1009.2
20260509201117 71 170 1.0 6.0 0.00 0.00 0.00 58 1009.2
20260509200625 71 226 2.0 6.0 0.00 0.00 0.00 57 1009.3
20260509200114 71 192 1.0 3.0 0.00 0.00 0.00 60 1009.4
20260509195623 70 170 0.0 11.0 0.00 0.00 0.00 62 1009.4
20260509195150 70 28 2.0 11.0 0.00 0.00 0.00 57 1009.5
20260509194618 70 224 1.0 6.0 0.00 0.00 0.00 57 1009.6
20260509194126 70 322 3.0 8.0 0.00 0.00 0.00 58 1009.8
20260509193635 69 250 3.0 8.0 0.00 0.00 0.00 61 1009.9
20260509193122 69 95 1.0 6.0 0.00 0.00 0.00 58 1010.0
20260509192632 69 266 3.0 6.0 0.00 0.00 0.00 60 1009.9
20260509192120 69 183 2.0 5.0 0.00 0.00 0.00 59 1009.9
20260509191627 69 199 0.0 4.0 0.00 0.00 0.00 58 1010.0
20260509191115 68 193 1.0 4.0 0.00 0.00 0.00 60 1009.9
20260509190625 69 232 1.0 3.0 0.00 0.00 0.00 59 1010.1
20260509190128 68 145 1.0 2.0 0.00 0.00 0.00 59 1010.2
20260509185617 68 26 1.0 2.0 0.00 0.00 0.00 61 1010.2
20260509185145 68 143 0.0 2.0 0.00 0.00 0.00 59 1010.2
20260509184614 67 68 1.0 2.0 0.00 0.00 0.00 60 1010.2
20260509184143 67 56 0.0 3.0 0.00 0.00 0.00 59 1010.3
20260509183631 68 336 1.0 3.0 0.00 0.00 0.00 58 1010.4
20260509183119 68 165 0.0 4.0 0.00 0.00 0.00 58 1010.4
20260509182628 67 165 0.0 4.0 0.00 0.00 0.00 59 1010.5
20260509182138 67 10 1.0 4.0 0.00 0.00 0.00 61 1010.7
20260509181627 67 344 0.0 2.0 0.00 0.00 0.00 59 1010.8
20260509181114 67 255 0.0 2.0 0.00 0.00 0.00 59 1011.0
20260509180624 67 243 0.0 2.0 0.00 0.00 0.00 60 1011.2
20260509180114 67 287 0.0 3.0 0.00 0.00 0.00 59 1011.3
20260509175621 67 280 2.0 4.0 0.00 0.00 0.00 58 1011.3
20260509175130 67 12 1.0 4.0 0.00 0.00 0.00 59 1011.4
20260509174620 67 312 0.0 4.0 0.00 0.00 0.00 60 1011.3
20260509174127 66 7 1.0 4.0 0.00 0.00 0.00 59 1011.3
20260509173617 67 320 0.0 3.0 0.00 0.00 0.00 59 1011.4
20260509173140 66 319 0.0 3.0 0.00 0.00 0.00 58 1011.3
20260509172629 66 313 1.0 3.0 0.00 0.00 0.00 61 1011.3
20260509172118 66 43 0.0 3.0 0.00 0.00 0.00 63 1011.4
20260509171627 65 11 0.0 3.0 0.00 0.00 0.00 62 1011.4
20260509171116 65 349 0.0 3.0 0.00 0.00 0.00 62 1011.3
20260509170644 65 333 0.0 2.0 0.00 0.00 0.00 62 1011.6
20260509170153 64 332 0.0 4.0 0.00 0.00 0.00 64 1011.6
20260509165622 65 10 0.0 4.0 0.00 0.00 0.00 62 1011.6
20260509165130 65 318 0.0 1.0 0.00 0.00 0.00 62 1011.6
20260509164619 64 59 0.0 1.0 0.00 0.00 0.00 61 1011.5
20260509164127 64 338 0.0 0.0 0.00 0.00 0.00 64 1011.4
20260509163617 64 339 0.0 0.0 0.00 0.00 0.00 66 1011.5
20260509163125 64 348 0.0 1.0 0.00 0.00 0.00 62 1011.6
20260509162636 65 328 0.0 3.0 0.00 0.00 0.00 62 1011.6
20260509162139 65 292 1.0 3.0 0.00 0.00 0.00 61 1011.7
20260509161626 64 264 0.0 3.0 0.00 0.00 0.00 60 1011.7
20260509161116 64 246 0.0 3.0 0.00 0.00 0.00 62 1011.8
20260509160645 64 263 0.0 2.0 0.00 0.00 0.00 61 1011.8
20260509160114 64 311 0.0 3.0 0.00 0.00 0.00 62 1011.8
20260509155622 64 103 1.0 3.0 0.00 0.00 0.00 62 1011.7
20260509155130 63 179 1.0 4.0 0.00 0.00 0.00 62 1011.7
20260509154638 63 218 1.0 5.0 0.00 0.00 0.00 62 1011.8
20260509154127 63 264 3.0 7.0 0.00 0.00 0.00 61 1011.7
20260509153635 64 96 1.0 7.0 0.00 0.00 0.00 61 1011.7
20260509153123 64 154 2.0 10.0 0.00 0.00 0.00 59 1011.8
20260509152653 65 285 2.0 10.0 0.00 0.00 0.00 60 1011.8
20260509152121 65 243 2.0 10.0 0.00 0.00 0.00 59 1011.8
20260509151629 65 244 1.0 9.0 0.00 0.00 0.00 61 1011.8
20260509151118 65 199 4.0 9.0 0.00 0.00 0.00 59 1011.8
20260509150624 64 303 1.0 5.0 0.00 0.00 0.00 62 1011.9
20260509150133 64 186 2.0 7.0 0.00 0.00 0.00 61 1012.0
20260509145622 63 174 2.0 7.0 0.00 0.00 0.00 60 1012.2
20260509145131 63 147 1.0 6.0 0.00 0.00 0.00 61 1012.2
20260509144619 63 39 2.0 5.0 0.00 0.00 0.00 62 1012.3
20260509144128 63 293 0.0 7.0 0.00 0.00 0.00 63 1012.3
20260509143617 62 239 2.0 7.0 0.00 0.00 0.00 62 1012.4
20260509143126 63 203 2.0 5.0 0.00 0.00 0.00 62 1012.3
20260509142615 62 170 1.0 4.0 0.00 0.00 0.00 62 1012.3
20260509142125 62 165 1.0 3.0 0.00 0.00 0.00 62 1012.1
20260509141613 62 288 1.0 7.0 0.00 0.00 0.00 61 1012.2
20260509141122 62 195 3.0 7.0 0.00 0.00 0.00 61 1012.2
20260509140630 62 120 0.0 10.0 0.00 0.00 0.00 60 1012.1
20260509140119 63 313 1.0 10.0 0.00 0.00 0.00 59 1012.2
20260509135629 63 305 3.0 9.0 0.00 0.00 0.00 60 1012.2
20260509135138 63 222 4.0 6.0 0.00 0.00 0.00 60 1012.1
20260509134625 63 165 1.0 4.0 0.00 0.00 0.00 59 1012.1
20260509134113 63 321 1.0 4.0 0.00 0.00 0.00 60 1012.1
20260509133622 62 282 1.0 9.0 0.00 0.00 0.00 59 1012.2
20260509133129 62 190 2.0 9.0 0.00 0.00 0.00 59 1012.2
20260509132635 62 214 1.0 12.0 0.00 0.00 0.00 59 1012.1
20260509132124 62 314 2.0 12.0 0.00 0.00 0.00 58 1012.2
20260509131653 62 307 2.0 10.0 0.00 0.00 0.00 58 1012.2
20260509131119 62 317 3.0 9.0 0.00 0.00 0.00 58 1012.0
20260509130628 62 113 3.0 7.0 0.00 0.00 0.00 59 1012.0
20260509130117 63 247 3.0 7.0 0.00 0.00 0.00 58 1012.0
20260509125625 63 303 2.0 7.0 0.00 0.00 0.00 58 1012.1
20260509125114 62 316 3.0 6.0 0.00 0.00 0.00 59 1012.0
20260509124622 61 197 1.0 7.0 0.00 0.00 0.00 61 1012.0
20260509124128 60 265 1.0 7.0 0.00 0.00 0.00 61 1012.1
20260509123616 60 86 1.0 4.0 0.00 0.00 0.00 60 1012.1
20260509123124 60 305 1.0 7.0 0.00 0.00 0.00 61 1012.1
20260509122653 59 330 2.0 7.0 0.00 0.00 0.00 61 1012.1
20260509122121 59 296 1.0 7.0 0.00 0.00 0.00 61 1012.1
20260509121629 59 315 2.0 8.0 0.00 0.00 0.00 61 1012.1
20260509121118 59 203 3.0 9.0 0.00 0.00 0.00 62 1012.0
20260509120628 59 178 4.0 9.0 0.00 0.00 0.00 62 1012.0
20260509120117 58 189 1.0 7.0 0.00 0.00 0.00 63 1012.0
20260509115622 58 259 3.0 10.0 0.00 0.00 0.00 62 1011.9
20260509115132 58 248 1.0 10.0 0.00 0.00 0.00 62 1011.8
20260509114620 58 247 3.0 9.0 0.00 0.00 0.00 62 1012.0
20260509114128 58 211 2.0 6.0 0.00 0.00 0.00 62 1011.8
20260509113636 58 149 1.0 4.0 0.00 0.00 0.00 61 1011.9
20260509113124 58 185 1.0 4.0 0.00 0.00 0.00 61 1011.8
20260509112614 58 207 0.0 10.0 0.00 0.00 0.00 61 1011.8
20260509112122 58 212 2.0 10.0 0.00 0.00 0.00 61 1011.7
20260509111631 57 230 3.0 9.0 0.00 0.00 0.00 61 1011.7
20260509111140 57 183 1.0 8.0 0.00 0.00 0.00 61 1011.7
20260509110629 57 51 2.0 9.0 0.00 0.00 0.00 61 1011.8
20260509110117 57 258 5.0 9.0 0.00 0.00 0.00 60 1011.8
20260509105646 57 95 1.0 9.0 0.00 0.00 0.00 60 1011.6
20260509105133 58 198 1.0 4.0 0.00 0.00 0.00 59 1011.6
20260509104623 57 228 0.0 4.0 0.00 0.00 0.00 59 1011.6
20260509104127 57 205 1.0 4.0 0.00 0.00 0.00 59 1011.5
20260509103616 57 170 0.0 5.0 0.00 0.00 0.00 59 1011.3
20260509103122 57 153 1.0 6.0 0.00 0.00 0.00 59 1011.4
20260509102630 57 235 1.0 7.0 0.00 0.00 0.00 59 1011.3
20260509102119 57 211 1.0 3.0 0.00 0.00 0.00 59 1011.5
20260509101628 57 234 1.0 3.0 0.00 0.00 0.00 59 1011.5
20260509101117 57 234 0.0 3.0 0.00 0.00 0.00 60 1011.4
20260509100625 57 250 1.0 4.0 0.00 0.00 0.00 59 1011.3
20260509100115 57 245 1.0 4.0 0.00 0.00 0.00 60 1011.3
20260509095622 57 276 0.0 2.0 0.00 0.00 0.00 60 1011.3
20260509095131 57 313 0.0 2.0 0.00 0.00 0.00 59 1011.2
20260509094619 57 299 0.0 4.0 0.00 0.00 0.00 60 1011.4
20260509094128 57 278 0.0 6.0 0.00 0.00 0.00 59 1011.3
20260509093616 57 281 1.0 6.0 0.00 0.00 0.00 59 1011.4
20260509093127 57 288 1.0 4.0 0.00 0.00 0.00 60 1011.4
20260509092616 57 349 0.0 4.0 0.00 0.00 0.00 60 1011.5
20260509092125 57 211 2.0 4.0 0.00 0.00 0.00 60 1011.5
20260509091615 57 243 0.0 3.0 0.00 0.00 0.00 60 1011.5
20260509091123 57 246 1.0 4.0 0.00 0.00 0.00 60 1011.5
20260509090649 57 295 1.0 4.0 0.00 0.00 0.00 60 1011.5
20260509090116 57 268 0.0 2.0 0.00 0.00 0.00 61 1011.6
20260509085624 57 311 0.0 3.0 0.00 0.00 0.00 60 1011.6
20260509085114 57 293 1.0 3.0 0.00 0.00 0.00 61 1011.6
20260509084622 57 214 0.0 3.0 0.00 0.00 0.00 61 1011.8
20260509084131 57 259 0.0 3.0 0.00 0.00 0.00 61 1011.7
20260509083619 57 223 1.0 3.0 0.00 0.00 0.00 61 1011.8
20260509083128 57 226 1.0 3.0 0.00 0.00 0.00 61 1011.8
20260509082618 57 263 0.0 3.0 0.00 0.00 0.00 61 1012.0
20260509082127 57 278 1.0 3.0 0.00 0.00 0.00 61 1012.0
20260509081616 57 261 0.0 2.0 0.00 0.00 0.00 61 1012.2
20260509081125 57 247 0.0 3.0 0.00 0.00 0.00 61 1012.2
20260509080654 57 249 0.0 4.0 0.00 0.00 0.00 61 1012.2
20260509080122 57 261 0.0 4.0 0.00 0.00 0.00 61 1012.2
20260509075651 56 212 0.0 3.0 0.00 0.00 0.00 61 1012.3
20260509075139 57 274 1.0 3.0 0.00 0.00 0.00 61 1012.3
20260509074626 57 332 0.0 2.0 0.00 0.00 0.00 61 1012.3
20260509074116 57 293 0.0 4.0 0.00 0.00 0.00 60 1012.1
20260509073620 56 275 1.0 5.0 0.00 0.00 0.00 60 1012.2
20260509073129 56 232 1.0 5.0 0.00 0.00 0.00 61 1012.1
20260509072617 56 262 0.0 9.0 0.00 0.00 0.00 60 1012.3
20260509072146 56 266 4.0 9.0 0.00 0.00 0.00 61 1012.2
20260509071614 56 64 1.0 6.0 0.00 0.00 0.00 61 1012.2
20260509071123 56 197 3.0 6.0 0.00 0.00 0.00 61 1012.3
20260509070631 56 226 2.0 5.0 0.00 0.00 0.00 61 1012.2
20260509070120 56 241 0.0 4.0 0.00 0.00 0.00 61 1012.2
20260509065649 56 243 2.0 4.0 0.00 0.00 0.00 62 1012.2
20260509065116 56 229 2.0 3.0 0.00 0.00 0.00 62 1012.2
20260509064626 56 277 0.0 3.0 0.00 0.00 0.00 62 1012.3
20260509064154 55 273 0.0 3.0 0.00 0.00 0.00 62 1012.3
20260509063643 55 242 1.0 3.0 0.00 0.00 0.00 62 1012.4
20260509063131 55 249 1.0 3.0 0.00 0.00 0.00 62 1012.4
20260509062636 55 189 0.0 4.0 0.00 0.00 0.00 62 1012.6
20260509062123 55 222 0.0 4.0 0.00 0.00 0.00 63 1012.5
20260509061633 55 257 0.0 3.0 0.00 0.00 0.00 63 1012.6
20260509061121 55 248 0.0 3.0 0.00 0.00 0.00 62 1012.6
20260509060630 55 234 0.0 3.0 0.00 0.00 0.00 62 1012.7
20260509060120 55 251 0.0 3.0 0.00 0.00 0.00 61 1012.6
20260509055629 55 248 0.0 3.0 0.00 0.00 0.00 61 1012.7
20260509055119 55 232 1.0 3.0 0.00 0.00 0.00 62 1012.7
20260509054627 54 226 0.0 2.0 0.00 0.00 0.00 63 1012.7
20260509054135 54 230 0.0 0.0 0.00 0.00 0.00 63 1012.8
20260509053624 54 205 0.0 0.0 0.00 0.00 0.00 63 1012.8
20260509053131 54 203 0.0 0.0 0.00 0.00 0.00 63 1012.8
20260509052619 55 222 0.0 0.0 0.00 0.00 0.00 63 1012.8
20260509052128 55 241 0.0 0.0 0.00 0.00 0.00 62 1012.9
20260509051617 54 241 0.0 0.0 0.00 0.00 0.00 62 1012.9
20260509051126 55 251 0.0 0.0 0.00 0.00 0.00 61 1012.9
20260509050615 55 251 0.0 0.0 0.00 0.00 0.00 61 1012.9
20260509050124 55 232 0.0 4.0 0.00 0.00 0.00 61 1012.8
20260509045633 55 227 0.0 4.0 0.00 0.00 0.00 61 1012.9
20260509045137 55 216 1.0 5.0 0.00 0.00 0.00 61 1012.8
20260509044644 55 238 2.0 5.0 0.00 0.00 0.00 61 1012.8
20260509044153 55 250 0.0 1.0 0.00 0.00 0.00 61 1012.9
20260509043622 55 224 0.0 1.0 0.00 0.00 0.00 60 1013.0
20260509043130 56 64 0.0 2.0 0.00 0.00 0.00 60 1012.9
20260509042619 56 249 0.0 2.0 0.00 0.00 0.00 60 1012.9
20260509042128 56 191 0.0 3.0 0.00 0.00 0.00 60 1012.9
20260509041617 56 239 1.0 3.0 0.00 0.00 0.00 61 1013.0
20260509041145 56 176 0.0 2.0 0.00 0.00 0.00 61 1013.0
20260509040615 56 209 0.0 4.0 0.00 0.00 0.00 61 1013.0
20260509040123 56 202 1.0 4.0 0.00 0.00 0.00 62 1013.0
20260509035629 55 165 0.0 1.0 0.00 0.00 0.00 63 1013.0
20260509035118 56 170 0.0 0.0 0.00 0.00 0.00 63 1013.0
20260509034626 56 170 0.0 0.0 0.00 0.00 0.00 63 1013.0
20260509034116 56 170 0.0 0.0 0.00 0.00 0.00 63 1013.1
20260509033623 56 170 0.0 0.0 0.00 0.00 0.00 63 1013.0
20260509033114 56 170 0.0 2.0 0.00 0.00 0.00 62 1013.0
20260509032619 56 226 0.0 2.0 0.00 0.00 0.00 63 1013.2
20260509032128 56 188 0.0 0.0 0.00 0.00 0.00 64 1013.0
20260509031616 56 188 0.0 0.0 0.00 0.00 0.00 63 1013.1
20260509031125 56 188 0.0 0.0 0.00 0.00 0.00 62 1013.1
20260509030615 57 188 0.0 0.0 0.00 0.00 0.00 62 1013.2
20260509030124 57 208 0.0 0.0 0.00 0.00 0.00 63 1013.2
20260509025613 57 211 0.0 0.0 0.00 0.00 0.00 62 1013.3
20260509025142 58 211 0.0 0.0 0.00 0.00 0.00 60 1013.3
20260509024629 58 213 0.0 0.0 0.00 0.00 0.00 59 1013.2
20260509024119 58 177 0.0 0.0 0.00 0.00 0.00 58 1013.2
20260509023627 58 177 0.0 0.0 0.00 0.00 0.00 58 1013.2
20260509023117 59 184 0.0 0.0 0.00 0.00 0.00 57 1013.3
20260509022624 59 195 0.0 0.0 0.00 0.00 0.00 56 1013.3
20260509022154 60 202 0.0 0.0 0.00 0.00 0.00 55 1013.3
20260509021622 61 202 0.0 0.0 0.00 0.00 0.00 52 1013.3
20260509021151 61 202 0.0 0.0 0.00 0.00 0.00 49 1013.3
20260509020619 61 216 0.0 0.0 0.00 0.00 0.00 48 1013.3
20260509020124 62 208 0.0 2.0 0.00 0.00 0.00 48 1013.2
20260509015633 62 211 0.0 2.0 0.00 0.00 0.00 48 1013.2
20260509015121 62 197 0.0 0.0 0.00 0.00 0.00 48 1013.2
20260509014629 62 201 0.0 0.0 0.00 0.00 0.00 47 1013.2
20260509014117 62 214 0.0 0.0 0.00 0.00 0.00 49 1013.1
20260509013645 62 165 0.0 0.0 0.00 0.00 0.00 49 1013.1
20260509013134 62 165 0.0 0.0 0.00 0.00 0.00 50 1013.0
20260509012640 62 165 0.0 0.0 0.00 0.00 0.00 51 1013.1
20260509012127 62 165 0.0 0.0 0.00 0.00 0.00 47 1013.2
20260509011615 62 165 0.0 0.0 0.00 0.00 0.00 49 1013.2
20260509011123 62 165 0.0 0.0 0.00 0.00 0.00 49 1013.1
20260509010631 62 165 0.0 0.0 0.00 0.00 0.00 48 1013.0
20260509010121 63 165 0.0 0.0 0.00 0.00 0.00 49 1013.0
20260509005650 63 165 0.0 0.0 0.00 0.00 0.00 48 1012.9
20260509005117 63 165 0.0 0.0 0.00 0.00 0.00 49 1012.9
20260509004626 63 165 0.0 0.0 0.00 0.00 0.00 51 1012.9
20260509004116 63 165 0.0 0.0 0.00 0.00 0.00 47 1012.9
20260509003620 64 165 0.0 0.0 0.00 0.00 0.00 45 1012.7
20260509003129 64 165 0.0 0.0 0.00 0.00 0.00 43 1012.8
20260509002618 64 165 0.0 0.0 0.00 0.00 0.00 42 1012.7
20260509002127 64 165 0.0 0.0 0.00 0.00 0.00 44 1012.7
20260509001616 64 165 0.0 0.0 0.00 0.00 0.00 44 1012.6
20260509001124 64 165 0.0 0.0 0.00 0.00 0.00 41 1012.6
20260509000633 64 165 0.0 0.0 0.00 0.00 0.00 43 1012.4
20260509000122 64 165 0.0 0.0 0.00 0.00 0.00 43 1012.4
20260508235651 64 165 0.0 0.0 0.00 0.00 0.00 44 1012.4
20260508235118 64 165 0.0 0.0 0.00 0.00 0.00 47 1012.3
20260508234627 64 165 0.0 0.0 0.00 0.00 0.00 41 1012.1
20260508234117 65 165 0.0 0.0 0.00 0.00 0.00 45 1012.2
20260508233627 65 290 0.0 0.0 0.00 0.00 0.00 40 1012.1
20260508233114 66 290 0.0 0.0 0.00 0.00 0.00 42 1012.1
20260508232622 66 290 0.0 0.0 0.00 0.00 0.00 41 1012.1
20260508232130 66 290 0.0 0.0 0.00 0.00 0.00 40 1012.1
20260508231620 66 290 0.0 2.0 0.00 0.00 0.00 40 1012.1
20260508231129 67 290 0.0 2.0 0.00 0.00 0.00 39 1012.1
20260508230618 67 292 0.0 3.0 0.00 0.00 0.00 36 1012.0
20260508230126 67 302 1.0 5.0 0.00 0.00 0.00 35 1012.0
20260508225616 67 295 2.0 5.0 0.00 0.00 0.00 35 1012.7
20260508225140 67 296 2.0 4.0 0.00 0.00 0.00 35 1012.1
20260508224627 67 314 1.0 3.0 0.00 0.00 0.00 35 1012.0
20260508224114 67 270 1.0 3.0 0.00 0.00 0.00 37 1012.0
20260508223644 68 284 1.0 3.0 0.00 0.00 0.00 36 1011.9
20260508223133 68 276 1.0 3.0 0.00 0.00 0.00 35 1011.8
20260508222621 68 293 1.0 5.0 0.00 0.00 0.00 36 1011.8
20260508222130 68 330 1.0 5.0 0.00 0.00 0.00 33 1011.9
20260508221618 68 301 2.0 6.0 0.00 0.00 0.00 34 1012.1
20260508221127 68 230 2.0 6.0 0.00 0.00 0.00 33 1012.1
20260508220617 68 291 1.0 4.0 0.00 0.00 0.00 35 1012.1
20260508220125 68 244 0.0 2.0 0.00 0.00 0.00 35 1012.1
20260508215632 68 326 0.0 3.0 0.00 0.00 0.00 34 1012.1
20260508215121 69 288 0.0 8.0 0.00 0.00 0.00 33 1012.0
20260508214628 69 283 2.0 8.0 0.00 0.00 0.00 31 1012.0
20260508214116 69 282 3.0 8.0 0.00 0.00 0.00 31 1012.0